GSAT0227 (PRN E06) (59600 NORAD) Tracking and Keplerian Element Data

This shows tracking and keplerian element data for the satellite.

Feedback or suggestion? Click here.




ElementValue
Catalog59600
NameGSAT0227 (PRN E06)
Epoch Orbit73
Epoch Day158.55519617
Epoch Year2024
RAAN121.7836
Inclination54.6933
Eccentricity0.000674
Argument of Perigee239.1554
Mean Anonmoly120.7175
Mean Motion1.70568062
Decay Rate7E-08
L11 59600U 24079C 24158.55519617 .00000007 00000+0 00000+0 0 9996
L22 59600 54.6933 121.7836 0006740 239.1554 120.7175 1.70568062 734



Live tracking and technical data element details for GSAT0227 (PRN E06) (NORAD 59600). GSAT0227 (PRN E06) can be tracked NOW for your location showing map with azimuth and elevation plus other details from your city location.







IsCatalogInMostPopularTable: catalog: 59600, numindb: 11
Update: records affected: 1



GetName: 59600 GSAT0227 (PRN E06)

Hit Count: updated at: Fri, 14 Jun 2024 19:14:16 GMT